Wind_Speed
16 15 14 14 15 16 16 17 18 18 19 20 20 21 23 25 27 30 32 33 32 32 33 33 33 33 32 31 29 27 25 24 23 23 22 21 20 19 19 19 19 19 19
18 17 17 17 18 18 18 19 19 20 20 20 21 22 23 24 26 28 30 32 32 33 34 35 35 36 35 34 32 30 28 27 25 25 25 24 22 21 20 20 20 20 19
18 19 20 21 21 20 20 20 20 20 20 20 21 22 23 24 24 26 28 30 32 34 35 35 36 36 35 35 34 34 32 30 28 27 26 24 22 20 20 21 21 20 19
18 20 21 22 22 22 22 21 20 20 19 19 20 21 22 22 23 24 25 28 30 32 33 33 34 34 33 33 33 34 34 32 30 28 26 24 22 21 21 21 20 20 19
21 21 22 22 22 23 23 22 21 21 20 20 20 21 22 22 22 24 24 26 28 28 29 29 30 31 31 31 32 33 33 32 30 28 25 24 23 21 20 21 21 20 21
26 25 24 23 23 23 23 23 22 22 22 21 21 21 21 21 22 23 24 25 26 27 28 29 29 29 29 29 31 32 32 31 29 26 25 24 23 21 21 22 22 22 23
27 27 25 24 24 24 24 24 24 24 24 24 23 22 22 22 22 22 23 24 25 28 29 29 29 28 28 28 30 30 30 29 28 26 25 25 25 23 22 21 21 23 25
26 25 25 24 24 25 25 25 25 25 25 25 25 23 23 23 23 23 23 24 25 26 28 29 29 29 28 28 29 29 29 29 28 27 27 27 27 25 24 22 21 23 25
25 25 25 24 24 24 24 25 25 24 24 25 25 24 23 24 24 25 26 25 25 26 27 28 28 30 30 30 30 30 30 30 29 28 28 28 28 27 26 25 24 23 24
25 25 26 25 25 25 26 27 27 27 27 25 25 24 25 25 25 26 27 27 26 25 26 28 28 30 32 32 32 32 32 32 31 31 31 31 30 29 28 27 26 25 25
25 25 25 26 26 27 28 28 29 29 30 29 28 27 26 26 26 27 28 27 25 24 25 26 28 30 32 33 34 34 34 34 34 33 34 33 32 30 30 30 30 29 28
23 22 23 23 24 26 27 28 29 30 30 30 29 28 27 26 26 27 27 27 25 24 23 24 27 30 31 33 34 35 36 36 37 36 35 34 33 33 33 33 33 33 31
19 19 19 20 21 23 25 27 28 28 28 28 28 28 27 27 27 27 27 26 25 24 23 23 24 27 29 30 31 32 33 35 37 37 36 35 35 35 35 35 35 34 32
16 16 16 17 18 20 21 22 23 24 24 24 25 26 27 26 26 26 26 25 24 24 23 23 23 24 25 25 26 28 29 30 32 32 33 34 35 36 36 36 37 36 35
14 14 14 15 17 17 17 15 13 15 17 17 18 19 20 22 23 23 24 24 23 23 22 22 22 21 21 21 21 23 25 25 26 27 29 31 33 35 36 37 37 37 36
13 13 14 14 15 15 16 12 6 4 8 9 11 13 15 17 19 21 22 22 22 22 22 22 21 20 20 19 20 21 23 25 28 29 30 32 34 35 37 38 38 37 37
12 12 13 14 15 15 15 13 9 4 2 5 7 10 12 14 16 17 18 19 20 21 21 22 22 22 21 21 21 22 23 24 26 28 30 31 33 34 35 36 36 37 37
11 11 12 13 14 14 14 12 10 6 2 2 4 7 9 11 13 15 16 17 18 19 20 20 21 22 23 23 24 25 26 27 28 28 29 29 30 31 32 33 35 36 37
10 10 11 11 12 13 13 12 10 7 4 1 2 4 6 8 10 12 14 15 16 18 19 20 21 23 24 26 27 28 29 30 30 30 30 30 29 29 29 31 32 34 37
10 10 10 11 11 11 11 11 10 8 5 3 1 2 4 6 8 10 11 13 15 16 18 19 21 23 25 26 28 30 31 32 32 32 32 31 30 29 30 30 30 31 33
10 10 10 10 10 10 10 10 9 8 6 4 3 1 1 3 5 6 8 10 12 13 15 17 18 19 21 22 24 26 28 30 31 32 32 32 31 30 30 30 30 29 29
9 10 10 9 9 9 9 8 8 7 6 5 4 3 2 2 3 4 5 7 9 11 13 15 16 17 17 18 19 20 21 23 24 26 27 28 29 30 30 30 30 30 30
10 10 10 9 9 9 8 8 8 8 7 6 5 5 4 4 4 4 5 7 8 10 12 13 13 13 13 13 13 14 14 16 17 19 21 23 26 29 30 31 32 33 33
11 11 11 10 10 10 10 10 10 10 9 9 9 8 7 7 7 7 7 8 8 9 9 10 10 10 10 10 10 11 12 13 13 14 16 17 19 22 25 28 31 33 34
12 12 13 13 13 12 12 12 12 12 12 12 12 11 11 10 10 10 10 10 10 10 10 10 9 9 8 9 10 10 11 11 12 12 13 15 16 18 20 22 23 24 26
13 14 15 15 15 15 15 15 15 15 15 15 14 14 13 13 13 13 13 13 13 13 13 12 11 10 9 9 9 9 9 9 10 11 12 13 15 16 19 21 22 23 24
Wind_Direction
289 293 295 291 286 283 281 280 279 277 272 266 261 254 247 242 240 238 237 237 237 237 237 239 240 241 243 243 243 243 244 248 251 250 248 248 249 252 257 260 261 262 264
287 291 292 292 290 287 284 281 278 276 274 269 261 257 254 249 243 240 239 237 238 239 241 242 242 243 244 243 242 241 241 244 249 253 252 251 253 254 256 259 261 262 264
286 290 290 289 288 287 286 282 278 274 271 267 262 258 255 252 248 244 242 240 239 241 243 244 244 245 243 242 241 240 240 243 249 253 254 252 252 252 255 256 258 260 263
291 293 291 288 286 284 282 280 275 271 269 267 263 260 258 255 251 249 246 242 241 241 242 243 243 242 240 239 239 238 238 241 246 250 252 250 250 253 253 253 255 257 261
299 298 294 288 283 280 278 276 273 270 269 269 266 262 258 257 254 251 247 245 241 239 240 240 240 238 237 236 234 234 236 238 242 245 247 247 250 250 249 248 251 255 259
302 300 296 288 281 277 275 273 272 270 270 270 268 264 258 254 253 250 248 247 243 240 241 240 238 237 235 232 231 232 234 235 237 241 242 243 245 246 247 248 252 256 260
300 298 294 288 281 276 274 272 270 269 269 267 264 261 256 253 253 252 249 248 245 242 240 238 235 235 233 230 229 229 230 231 234 237 239 240 243 245 248 251 254 257 258
298 295 291 287 281 277 276 273 270 268 267 265 259 257 255 255 256 255 254 251 248 244 242 240 238 236 232 230 229 229 229 232 234 235 236 237 240 244 247 250 256 259 257
300 297 294 290 284 279 276 273 272 270 270 266 258 255 254 255 255 254 253 252 249 247 246 243 240 236 232 231 231 230 231 232 233 234 235 238 242 245 248 251 255 258 258
301 299 296 292 287 282 278 275 273 270 268 267 259 255 254 253 251 250 250 250 248 247 246 244 242 240 236 233 232 233 234 234 234 234 236 238 241 245 248 251 254 257 257
301 298 295 292 289 285 281 277 273 270 266 263 261 257 253 251 249 247 246 246 246 247 247 245 245 243 240 238 236 235 236 236 236 235 236 239 242 246 248 250 254 255 257
304 301 298 295 292 288 284 279 274 269 265 261 258 254 251 249 245 241 240 241 243 246 249 250 250 247 244 241 239 238 236 236 233 232 235 238 242 245 247 250 253 255 258
309 306 304 300 298 294 288 282 275 267 260 256 254 252 248 245 239 236 236 240 243 246 251 255 256 256 252 245 240 236 232 231 229 231 234 238 242 245 248 252 255 256 259
317 317 315 312 309 306 299 290 276 263 255 251 250 248 243 241 233 230 233 238 242 246 251 255 258 259 258 254 243 234 230 231 232 234 238 242 245 248 251 255 257 257 259
330 329 328 327 326 326 323 312 285 258 247 242 242 236 231 225 222 225 229 234 239 244 248 251 254 258 262 262 252 242 239 239 240 243 246 248 249 252 255 258 258 257 257
337 336 337 341 345 349 353 353 339 259 231 227 221 217 217 216 220 226 229 234 238 243 247 248 250 254 258 259 257 253 249 248 248 249 251 253 254 256 258 259 258 256 255
341 343 348 353 357 1 7 13 22 41 147 188 194 200 208 215 223 228 232 236 240 244 247 248 250 253 256 258 258 256 255 254 254 254 254 255 256 257 258 257 256 255 255
345 349 356 1 6 9 12 15 21 31 56 156 191 203 212 221 228 233 237 240 243 246 249 251 254 257 260 261 261 260 259 258 257 256 255 256 256 256 255 254 253 254 254
346 351 356 360 4 9 13 16 18 20 20 1 224 220 223 227 232 237 241 245 248 251 253 256 260 262 265 266 265 264 263 261 259 257 256 255 255 254 253 251 251 255 253
346 350 354 356 359 3 8 13 17 19 20 17 340 253 241 242 245 248 251 253 256 258 261 263 267 270 270 269 268 267 265 263 261 258 256 254 253 251 250 250 252 255 253
350 352 355 358 360 1 2 5 10 16 24 29 29 13 284 261 260 261 262 263 265 267 269 272 275 278 277 275 273 271 267 264 261 258 255 252 250 249 248 247 248 251 251
0 1 2 2 0 0 2 3 7 14 22 30 36 34 20 345 313 298 288 283 281 282 283 284 286 287 285 283 281 278 272 265 260 257 253 249 246 245 244 245 245 246 248
14 15 15 15 13 13 14 16 20 26 31 35 34 30 21 9 355 339 325 313 306 303 303 302 298 294 291 289 288 284 279 272 264 258 253 248 245 243 243 245 246 246 248
28 29 31 33 36 38 39 40 42 44 46 47 46 42 36 29 20 9 359 348 338 331 324 323 318 310 301 296 294 293 288 280 269 262 255 252 248 246 247 249 251 253 254
41 44 47 51 53 55 56 56 57 56 55 53 52 49 46 42 36 28 22 15 7 1 355 349 344 335 323 312 305 301 296 288 277 269 262 258 257 254 254 255 256 258 259
53 56 58 60 61 61 62 61 60 59 56 54 51 48 44 40 37 32 27 24 20 18 16 13 10 5 355 343 331 323 314 302 289 279 271 266 266 265 263 262 261 262 264
Height
5778 5777 5776 5775 5775 5775 5774 5774 5774 5773 5774 5775 5776 5777 5779 5781 5783 5785 5788 5791 5794 5797 5800 5804 5806 5809 5812 5815 5817 5820 5822 5823 5825 5826 5828 5831 5832 5834 5834 5836 5837 5838 5839
5773 5772 5771 5770 5770 5770 5769 5769 5769 5768 5768 5769 5771 5772 5773 5775 5776 5778 5781 5784 5787 5790 5793 5796 5799 5801 5804 5807 5810 5813 5815 5817 5819 5820 5822 5824 5826 5828 5829 5830 5831 5832 5833
5768 5767 5766 5765 5764 5764 5763 5763 5763 5763 5763 5764 5765 5766 5767 5768 5770 5772 5774 5776 5779 5782 5785 5788 5790 5793 5796 5799 5802 5805 5808 5810 5812 5814 5816 5818 5820 5822 5823 5824 5826 5827 5828
5762 5761 5760 5759 5758 5757 5757 5757 5757 5756 5757 5757 5758 5759 5760 5762 5763 5765 5766 5769 5771 5774 5777 5779 5782 5785 5788 5791 5794 5797 5800 5803 5805 5808 5810 5812 5814 5815 5817 5818 5820 5821 5823
5756 5755 5753 5752 5751 5750 5750 5750 5750 5750 5750 5751 5752 5752 5754 5755 5756 5758 5759 5761 5763 5766 5769 5771 5774 5777 5780 5783 5786 5789 5792 5796 5798 5801 5803 5805 5807 5809 5811 5813 5814 5816 5817
5749 5747 5746 5745 5744 5743 5743 5743 5744 5744 5744 5745 5745 5746 5747 5748 5750 5751 5753 5755 5756 5759 5761 5764 5767 5769 5772 5775 5779 5782 5785 5789 5792 5795 5797 5799 5801 5803 5806 5808 5809 5810 5811
5741 5739 5738 5737 5736 5736 5736 5736 5737 5737 5738 5738 5739 5740 5741 5742 5744 5745 5747 5749 5750 5752 5754 5757 5760 5763 5766 5768 5772 5775 5779 5782 5786 5789 5791 5793 5795 5797 5800 5802 5803 5803 5804
5734 5732 5730 5729 5729 5728 5728 5728 5729 5729 5730 5731 5732 5734 5735 5736 5737 5738 5740 5742 5744 5746 5748 5750 5753 5756 5759 5762 5765 5769 5772 5776 5779 5782 5784 5786 5788 5791 5794 5796 5797 5797 5797
5726 5724 5722 5721 5721 5721 5721 5721 5721 5722 5722 5723 5724 5726 5728 5729 5730 5732 5734 5736 5738 5739 5741 5744 5746 5749 5752 5755 5758 5762 5765 5768 5771 5774 5777 5779 5782 5784 5786 5789 5790 5790 5791
5720 5717 5715 5714 5713 5712 5712 5712 5713 5713 5714 5715 5716 5718 5720 5722 5724 5726 5728 5730 5731 5733 5735 5737 5739 5742 5744 5747 5750 5754 5757 5760 5764 5767 5769 5772 5774 5777 5779 5781 5783 5784 5784
5714 5711 5708 5706 5705 5704 5703 5703 5703 5704 5705 5706 5708 5710 5712 5714 5716 5718 5721 5723 5725 5727 5729 5731 5733 5734 5737 5739 5742 5745 5748 5752 5755 5758 5761 5764 5767 5770 5772 5774 5775 5776 5778
5707 5704 5702 5699 5697 5695 5694 5693 5693 5693 5695 5696 5698 5701 5703 5706 5708 5711 5713 5716 5719 5721 5723 5724 5726 5727 5729 5731 5733 5736 5739 5742 5746 5750 5753 5756 5759 5762 5764 5765 5767 5768 5771
5702 5699 5696 5693 5691 5688 5685 5683 5682 5683 5684 5686 5688 5691 5694 5697 5700 5703 5706 5709 5712 5715 5717 5718 5720 5721 5722 5723 5725 5728 5731 5734 5737 5741 5744 5747 5750 5752 5754 5757 5758 5760 5762
5697 5694 5691 5688 5685 5681 5677 5674 5672 5672 5674 5676 5679 5682 5685 5689 5693 5697 5700 5703 5706 5709 5711 5713 5714 5715 5716 5717 5718 5721 5723 5726 5729 5732 5736 5739 5741 5744 5746 5748 5749 5751 5753
5694 5691 5688 5685 5681 5677 5671 5666 5663 5664 5667 5669 5672 5675 5678 5682 5687 5691 5694 5698 5701 5704 5706 5707 5709 5710 5711 5712 5713 5715 5717 5719 5722 5725 5728 5730 5733 5735 5737 5739 5740 5742 5744
5693 5690 5687 5684 5680 5675 5670 5665 5662 5661 5663 5666 5669 5672 5675 5679 5683 5686 5690 5693 5696 5698 5700 5702 5704 5705 5706 5707 5708 5709 5711 5713 5715 5718 5720 5722 5724 5726 5727 5729 5730 5732 5735
5692 5689 5686 5683 5679 5675 5671 5668 5665 5664 5664 5666 5668 5671 5674 5677 5680 5683 5685 5688 5691 5693 5695 5696 5698 5699 5700 5701 5702 5704 5705 5706 5708 5710 5711 5713 5714 5716 5717 5719 5720 5722 5725
5692 5689 5686 5683 5680 5677 5674 5671 5669 5668 5667 5668 5669 5671 5673 5675 5677 5680 5682 5684 5686 5688 5689 5691 5692 5693 5694 5694 5695 5696 5697 5698 5699 5701 5702 5703 5705 5706 5707 5709 5711 5713 5714
5691 5689 5687 5684 5682 5679 5676 5674 5672 5670 5670 5670 5670 5671 5672 5674 5676 5677 5679 5681 5682 5683 5684 5685 5686 5686 5686 5687 5687 5687 5688 5689 5690 5691 5693 5694 5695 5696 5698 5700 5702 5703 5703
5691 5689 5687 5685 5682 5681 5679 5676 5674 5673 5672 5671 5671 5671 5672 5673 5674 5675 5676 5677 5678 5679 5680 5680 5680 5680 5679 5679 5678 5678 5678 5678 5679 5681 5682 5684 5686 5688 5689 5691 5693 5694 5695
5691 5689 5687 5685 5683 5681 5680 5678 5676 5675 5673 5673 5672 5672 5672 5672 5673 5673 5674 5674 5675 5675 5675 5675 5674 5673 5672 5671 5670 5669 5668 5668 5669 5670 5672 5674 5677 5679 5681 5683 5685 5686 5687
5691 5689 5687 5685 5684 5682 5681 5680 5678 5676 5675 5674 5673 5673 5672 5672 5672 5672 5672 5672 5672 5671 5671 5670 5669 5667 5666 5664 5663 5662 5660 5660 5660 5661 5663 5665 5667 5670 5672 5674 5676 5678 5680
5692 5690 5688 5686 5685 5683 5682 5681 5679 5678 5676 5675 5674 5674 5673 5673 5672 5672 5671 5670 5669 5668 5667 5666 5664 5662 5661 5660 5658 5657 5656 5655 5655 5655 5656 5657 5659 5662 5664 5666 5668 5670 5671
5694 5692 5690 5688 5687 5685 5684 5682 5681 5680 5678 5677 5676 5675 5674 5673 5673 5672 5670 5669 5667 5666 5664 5662 5660 5659 5657 5656 5655 5653 5652 5651 5651 5651 5652 5653 5654 5655 5657 5659 5660 5661 5663
5697 5695 5693 5691 5689 5688 5686 5685 5684 5682 5681 5680 5678 5677 5676 5675 5673 5672 5670 5668 5666 5664 5662 5660 5658 5656 5655 5653 5652 5650 5649 5648 5648 5648 5648 5649 5649 5650 5651 5652 5653 5654 5655
5700 5698 5697 5695 5693 5691 5690 5688 5687 5686 5684 5683 5681 5680 5678 5677 5675 5673 5671 5669 5667 5665 5662 5660 5658 5656 5654 5652 5650 5648 5647 5646 5645 5645 5645 5645 5645 5645 5646 5646 5646 5647 5647